Weather History for Midland, TX

Change the Weather History Date:

Friday, October 7, 2011

  Actual Average Record
Temperature  
Mean Temperature 79 °F 68 °F  
Max Temperature 87 °F 81 °F 99 °F (1979)
Min Temperature 70 °F 55 °F 38 °F (1976)
Degree Days  
Heating Degree Days 0 2  
Month to date heating degree days 0 10  
Since 1 July heating degree days 3 21  
Cooling Degree Days 14 5  
Month to date cooling degree days 58 37  
Year to date cooling degree days 3165 2216  
Growing Degree Days 28 (Base 50)    
Moisture  
Dew Point 59 °F    
Average Humidity 56    
Maximum Humidity 78    
Minimum Humidity 34    
Precipitation  
Precipitation 0.02 in 0.07 in 0.78 in (1954)
Month to date precipitation 0.02 0.46  
Year to date precipitation 2.22 12.04  
Snow  
Snow 0.00 in - - ()
Month to date snowfall 0.0  
Since 1 July snowfall 0.0  
Since 1 September snowfall 0.0  
Snow Depth 0.00 in    
Sea Level Pressure  
Sea Level Pressure 29.77 in    
Wind  
Wind Speed 24 mph (SSE)    
Max Wind Speed 31 mph    
Max Gust Speed 39 mph    
Visibility 10 miles    
Events Thunderstorm    
T = Trace of Precipitation, MM = Missing Value Source: NWS Daily Summary

Daily Weather History Graph

Daily Weather History Graph

Search for Another Location

Airport:

Trip Planner

Search our weather history database for the weather conditions in past years. The results will help you decide how hot, cold, wet, or windy it might be!

Date:

Astronomy

Oct. 07, 2011 Rise Set
Actual Time 7:46 AM CDT 7:26 PM CDT
Civil Twilight 7:22 AM CDT 7:50 PM CDT
Nautical Twilight 6:53 AM CDT 8:19 PM CDT
Astronomical Twilight 6:25 AM CDT 8:47 PM CDT
Moon 4:59 PM CDT (10/7) 3:50 AM CDT (10/7)
Length of Visible Light 12h 28m
Length of Day
11h 39m
Waxing Gibbous, 83% of the Moon is Illuminated
Oct 7
Waxing Gibbous
Oct 11
Full
Oct 19
Last Quarter
Oct 26
New
Nov 2
First Quarter

Hourly Weather History & Observations

Time (CDT) Temp. Heat Index Dew Point Humidity Pressure Visibility Wind Dir Wind Speed Gust Speed Precip Events Conditions
12:53 AM 75.9 °F - 55.9 °F 50% 29.72 in 10.0 mi SSE 19.6 mph 28.8 mph N/A   Clear
1:53 AM 75.0 °F - 55.9 °F 51% 29.71 in 10.0 mi South 26.5 mph 33.4 mph N/A   Clear
2:53 AM 75.0 °F - 57.0 °F 53% 29.70 in 10.0 mi South 26.5 mph 38.0 mph N/A   Clear
3:53 AM 73.0 °F - 57.0 °F 57% 29.70 in 10.0 mi SSE 23.0 mph 33.4 mph N/A   Clear
4:53 AM 72.0 °F - 57.9 °F 61% 29.72 in 10.0 mi South 26.5 mph 33.4 mph N/A   Clear
5:53 AM 70.0 °F - 60.1 °F 71% 29.74 in 10.0 mi South 24.2 mph 29.9 mph N/A   Clear
6:53 AM 69.8 °F - 62.6 °F 78% 29.89 in 10.0 mi South 17.3 mph - N/A   Scattered Clouds
7:01 AM 69.8 °F - 62.6 °F 78% 29.89 in 10.0 mi South 17.3 mph - N/A   Mostly Cloudy
7:53 AM 70.0 °F - 62.1 °F 76% 29.78 in 10.0 mi South 16.1 mph - N/A   Overcast
8:53 AM 71.1 °F - 63.0 °F 75% 29.79 in 10.0 mi South 16.1 mph 24.2 mph N/A   Overcast
9:42 AM 73.4 °F - 62.6 °F 69% 29.93 in 10.0 mi South 21.9 mph 32.2 mph N/A   Scattered Clouds
9:53 AM 73.0 °F - 63.0 °F 71% 29.81 in 10.0 mi South 20.7 mph 32.2 mph N/A   Partly Cloudy
10:53 AM 75.2 °F - 62.6 °F 65% 29.95 in 10.0 mi South 23.0 mph 31.1 mph N/A   Partly Cloudy
11:53 AM 78.8 °F - 60.8 °F 54% 29.95 in 10.0 mi South 19.6 mph 31.1 mph N/A   Clear
12:53 PM 82.0 °F 82.7 °F 61.0 °F 49% 29.78 in 10.0 mi South 20.7 mph 32.2 mph N/A   Clear
1:53 PM 84.0 °F 84.0 °F 60.1 °F 44% 29.75 in 10.0 mi South 25.3 mph 29.9 mph N/A   Clear
2:53 PM 86.0 °F 85.7 °F 60.1 °F 41% 29.72 in 10.0 mi South 21.9 mph 32.2 mph N/A   Clear
3:53 PM 86.0 °F 85.0 °F 57.9 °F 38% 29.70 in 10.0 mi South 24.2 mph 29.9 mph N/A   Clear
4:53 PM 87.1 °F 85.3 °F 55.0 °F 33% 29.70 in 10.0 mi South 20.7 mph - N/A   Clear
5:53 PM 86.0 °F 84.9 °F 57.0 °F 37% 29.70 in 10.0 mi SSE 26.5 mph 33.4 mph N/A   Clear
6:53 PM 82.9 °F 82.6 °F 57.9 °F 42% 29.69 in 10.0 mi SSE 27.6 mph 34.5 mph N/A   Clear
7:53 PM 80.1 °F 80.7 °F 59.0 °F 48% 29.71 in 10.0 mi SSE 27.6 mph - N/A   Clear
8:53 PM 79.0 °F - 57.9 °F 48% 29.72 in 10.0 mi SSE 25.3 mph 33.4 mph N/A   Clear
9:53 PM 78.1 °F - 57.9 °F 50% 29.72 in 10.0 mi SSE 26.5 mph 38.0 mph N/A   Clear
10:53 PM 78.1 °F - 57.0 °F 48% 29.72 in 10.0 mi SSE 25.3 mph 33.4 mph N/A   Clear
11:53 PM 78.1 °F - 57.0 °F 48% 29.71 in 10.0 mi SSE 25.3 mph 31.1 mph N/A Thunderstorm Partly Cloudy